{"data":{"norad_id":42838,"epoch":"2026-09-19T17:37:59.694816Z","epoch_age_seconds":80521,"freshness":"FRESH","line1":"1 42838U 17042P   26262.73471869  .00017277  00000+0  45693-3 0  9995","line2":"2 42838  97.3697  83.7090 0008242  30.9988 329.1742 15.38434442502977","mean_motion":15.38434442,"eccentricity":0.0008242,"inclination_deg":97.3697,"raan_deg":83.709,"arg_perigee_deg":30.9988,"mean_anomaly_deg":329.1742,"bstar":0.00045693,"rev_number":50297,"period_min":93.601648577756,"perigee_km":445.10988216122,"apogee_km":456.36660010871,"semimajor_km":6828.875241135,"source":"CELESTRAK","updated_at":"2026-09-20T09:00:34.867490Z"}}